Regional Weather Roundup
Issued by NWS

Home | Current Version | Previous Version | Text Only | Print | Product List | Glossary On
Versions: 1 2 3 4 5 6 7 8 9 10 11 12 13 14 15 16 17 18 19 20 21 22 23 24 25 26 27 28 29 30 31 32 33 34 35 36 37 38 39 40 41 42 43 44 45 46 47 48 49 50
951
ASCA44 KEWX 181620
RWRMX

LATIN AMERICA AND CARIBBEAN REGIONAL WEATHER ROUNDUP
NATIONAL WEATHER SERVICE AUSTIN/SAN ANTONIO TX
1000 AM CST SAT NOV 18 2017

NOTE: "FAIR" INDICATED FEW OR NO CLOUDS BELOW 12,000 FEET WITH NO
SIGNIFICANT WEATHER AND/OR OBSTRUCTIONS TO VISIBILITY.

BAJA CALIFORNIA

CITY           SKY/WX    TMP DP  RH WIND       PRES   REMARKS
LORETO           N/A    N/A N/A N/A MISG        N/A
LA PAZ         SUNNY     72  37  28 S5        29.99R
MEXICALI       SUNNY     64  25  22 NW8       30.17R
S.J. DEL CABO  SUNNY     77  43  29 CALM      29.98R
TIJUANA        SUNNY     59  52  77 CALM      30.16R

NORTHWESTERN MEXICO

CITY           SKY/WX    TMP DP  RH WIND       PRES   REMARKS
CULIACAN       MOSUNNY   72  59  64 CALM      29.95R
DURANGO        SUNNY     59  41  51 CALM      30.31S
GUAYMAS        SUNNY     73  52  46 CALM      29.94R
HERMOSILLO     MOSUNNY   70  39  32 SE6       30.03R
CD. JUAREZ     MOSUNNY   61  30  31 N12       30.21R
LOS MOCHIS     SUNNY     72  64  78 CALM      29.96S
OBREGON        SUNNY     70  37  30 CALM      29.95R

NORTHEASTERN MEXICO

CITY           SKY/WX    TMP DP  RH WIND       PRES   REMARKS
CHIHUAHUA      SUNNY     63  28  27 CALM      30.21R
MATAMOROS      PTSUNNY   81  73  78 S16       29.89R
MONCLOVA       SUNNY     79  57  47 CALM      29.96
NUEVO LAREDO   CLOUDY    70  68  94 CALM      29.91R
PIEDRAS NEGRAS FOG       68  66  94 CALM      29.97R VSB 3/4
REYNOSA        SUNNY     77  64  65 S12       29.88R
SALTILLO       SUNNY     79  57  47 CALM      30.20R
TORREON        SUNNY     73  39  29 CALM      30.15R
CD. VICTORIA   SUNNY     77  64  65 MISG      29.90R

WESTERN MEXICO

CITY           SKY/WX    TMP DP  RH WIND       PRES   REMARKS
AGUASCALIENTES SUNNY     63  27  25 W3        30.31R
COLIMA           N/A    N/A N/A N/A MISG        N/A
DEL BAJIO      SUNNY     66  30  26 CALM      30.34R
GUADALAJARA    SUNNY     66  48  52 E5        30.23R
MANZANILLO     SUNNY     90  77  66 CALM      29.90R HX 102
MAZATLAN       SUNNY     79  73  83 NE3       29.95R
P. VALLARTA    SUNNY     81  68  65 CALM      29.93R
URUAPAN        SUNNY     70  54  56 CALM      30.19R
ZACATECAS      SUNNY     68  37  32 CALM      30.32R

CENTRAL MEXICO

CITY           SKY/WX    TMP DP  RH WIND       PRES   REMARKS
CUERNAVACA       N/A    N/A N/A N/A MISG        N/A
MEXICO CITY    SUNNY     61  36  39 SE2       30.37S
MORELIA        SUNNY     61  46  59 CALM      30.29R
POZA RICA      MOSUNNY   79  72  78 CALM      29.98S
PUEBLA         SUNNY     63  37  39 CALM      30.34R
QUERETARO      SUNNY     59  36  41 CALM      30.34R
TAMPICO        MOSUNNY   79  70  73 MISG      29.93S
TOLUCA         SUNNY     54  36  50 NW5       30.40S

SOUTHERN MEXICO

CITY           SKY/WX    TMP DP  RH WIND       PRES   REMARKS
ACAPULCO         N/A    N/A N/A N/A MISG        N/A
B. DE HUATULCO SUNNY    N/A N/A N/A CALM      29.96R
OAXACA         MOSUNNY   66  52  59 N8        30.23F
P. ESCONDIDO   SUNNY     81  70  69 E6        30.02R
VERACRUZ       MOSUNNY   79  72  78 S5        29.97R
ZIHUATANEJO    SUNNY     86  73  66 S5        29.91R HX  93

YUCATAN PENINSULA

CITY           SKY/WX    TMP DP  RH WIND       PRES   REMARKS
CAMPECHE       SUNNY     79  70  73 E9        29.97R
CANCUN         PTSUNNY   81  68  65 E5        29.98S
CHETUMAL       SUNNY     82  68  61 CALM      29.99S
CD. DEL CARMEN SUNNY    N/A N/A N/A SE12      29.99R
COZUMEL        PTSUNNY   79  73  83 SE10      29.97R
MERIDA         SUNNY     81  61  50 CALM      30.00S
MINATITLAN     MOSUNNY   81  73  78 CALM      29.96R
TAPACHULA      MOSUNNY   88  75  66 E7        29.90  HX  97
TUX. GUTIERREZ MOSUNNY   77  64  65 N5        30.02F
VILLAHERMOSA   SUNNY     79  70  73 E6        29.99S

CENTRAL AMERICA

CITY           SKY/WX    TMP DP  RH WIND       PRES   REMARKS
MANAGUA        MOSUNNY   84  68  58 E7        29.89S

CARIBBEAN

CITY           SKY/WX    TMP DP  RH WIND       PRES   REMARKS
ARUBA          MOSUNNY   84  79  84 SE6       29.80S HX  96
CURACAO        MOSUNNY   86  77  74 E8        29.80F HX  97
KINGSTON       MOSUNNY   86  73  66 S8        29.83S HX  93
NASSAU         MOSUNNY   82  66  57 N7        30.00F
SAN JUAN       LGT RAIN  82  79  89 E5        29.82  HX  93
SANTO DOMINGO  PTSUNNY   81  73  78 N5        29.83S
ST. KITTS      MOSUNNY   88  77  70 S9        29.83  HX 100
ST. MAARTEN    MOSUNNY   88  77  70 S3        29.83F HX 100
ST. THOMAS       N/A    N/A N/A N/A MISG      29.85

$$





USA.gov is the U.S. government's official web portal to all federal, state and local government web resources and services.